Voltar ao catálogo

COSMOS 2336

AtivoMilitarPO
NORAD 24677·PAYLOAD·🇷🇺 Russia

Lançado Dec 20, 1996 de Plesetsk Cosmodrome

Loading…

Próximas Passagens (próximas 24 horas)

TLE

AtualizadoSource: Space-Track

Época: Sep 14, 2026, 02:36 UTC

1 24677U 96071A   26257.10899395  .00000056  00000-0  44856-4 0  9997
2 24677  82.9427 141.2208 0024646  35.1371 134.4279 13.71688166488210

Acompanhe COSMOS 2336 em tempo real com AllMySat

Download on the App Store